Regional Weather Roundup
Issued by NWS

Home | Current Version | Previous Version | Text Only | Print | Product List | Glossary On
Versions: 1 2 3 4 5 6 7 8 9 10 11 12 13 14 15 16 17 18 19 20 21 22 23 24 25 26 27 28 29 30 31 32 33 34 35 36 37 38 39 40 41 42 43 44 45 46 47 48 49 50
000
ASUS43 KMPX 010110
RWRMN
WEATHER ROUNDUP FOR MINNESOTA
NATIONAL WEATHER SERVICE TWIN CITIES/CHANHASSEN MN
700 PM CST SUN FEB 28 2021


NOTE: "FAIR" INDICATES FEW OR NO CLOUDS BELOW 12,000 FEET WITH NO
SIGNIFICANT WEATHER AND/OR OBSTRUCTIONS TO VISIBILITY. N/A MEANS
CURRENT SKY AND/OR WEATHER CONDITIONS ARE NOT AVAILABLE.

MNZ060>063-068>070-010200-
   Twin Cities Metro

CITY           SKY/WX    TMP DP  RH WIND       PRES   REMARKS
TWIN CITIES    CLEAR     22  12  65 W14       30.02R WCI   9
ST PAUL        CLEAR     24  12  60 W18G24    30.02R WCI  10
CRYSTAL        CLEAR     21  10  62 W12       30.01R WCI   9
BLAINE         CLEAR     23  14  68 W14G21    29.99R WCI  11
LAKEVILLE      CLEAR     19  12  73 W18       30.01R WCI   4
EDEN PRAIRIE   CLEAR     20  11  68 W12G20    30.02R WCI   8
SOUTH ST PAUL  CLEAR     25  13  61 W10G17    30.00R WCI  14
$$
MNZ001>005-007-008-013>017-022>024-027-028-010200-
   Northwest Minnesota

CITY           SKY/WX    TMP DP  RH WIND       PRES   REMARKS
BEMIDJI        MOCLDY    13   5  70 NW14      30.00R WCI  -2
HALLOCK        PTCLDY    12   5  73 N10       30.10R WCI  -1
ROSEAU         PTCLDY    16   0  48 W9        30.04R WCI   4
WARROAD        PTCLDY    10   1  67 W10G16    30.03R WCI  -3
THIEF RVR FALL FLURRIES  12   4  70 NW14      30.07R WCI  -3
CROOKSTON      MOCLDY    16   5  62 N13       30.10R WCI   2
FOSSTON        MOCLDY    12   3  67 NW9       30.04R WCI   0
DETROIT LAKES  CLOUDY    16   9  73 NW9G16    30.03R WCI   4
MOORHEAD       PTCLDY    19   7  58 N13       30.08R WCI   7
PARK RAPIDS    CLOUDY    17   8  67 NW15      29.98R WCI   2
MAHNOMEN       MOCLDY    15   7  69 N13       30.04R WCI   1
$$
MNZ006-009>011-018-025>026-010200-
   North Central Minnesota

CITY           SKY/WX    TMP DP  RH WIND       PRES   REMARKS
BAUDETTE       CLOUDY    11   1  64 W12       29.99R WCI  -3
FLAG ISLAND    MOCLDY     9  -2  61 NW14      30.01R WCI  -8
INTL FALLS     MOCLDY    10   0  63 W7        29.95R WCI  -1
WASKISH        MOCLDY    10   3  72 W6        30.00R WCI   1
BIG FORK       MOCLDY    14   1  57 W6        30.01R WCI   5
LONGVILLE      MOCLDY    16   7  67 NW7       29.99R WCI   6
GRAND RAPIDS   PTCLDY    15   5  64 NW17G25   29.97R WCI  -1
CRANE LAKE       N/A     10   1  67 NW5       29.96R WCI   2
ORR            MOCLDY    10   1  67 NW8       29.91R WCI  -1
COOK           MOCLDY    12   1  62 NW8       29.92R WCI   1
WALKER         CLOUDY    15   7  71 NW14G20   29.99R WCI   0
$$
MNZ012-019>021-037-010200-
   Northeast Minnesota

CITY           SKY/WX    TMP DP  RH WIND       PRES   REMARKS
DULUTH         PTCLDY    19   4  51 NW16      29.87R WCI   4
ELY            PTCLDY    12   0  57 NW13G24   29.88R WCI  -3
HIBBING        PTCLDY    15   3  59 NW14G21   29.92R WCI   0
EVELETH        PTCLDY    16   5  62 NW10G18   29.92R WCI   3
DULUTH HARBOR  CLEAR     23   7  50 NW22G29   29.94R WCI   8
TWO HARBORS    CLEAR     18   1  49 NW7G16    29.88R WCI   8
SILVER BAY     CLEAR     16   0  48 W6G24     29.86R WCI   7
GRAND MARAIS     N/A     21   4  47 MISG      29.82R
G MARAIS ARPRT MOCLDY    14   1  57 NW10G26   29.73R WCI   1
$$
MNZ029>031-032-039>041-046>048-054>057-064-010200-
   West Central Minnesota

CITY           SKY/WX    TMP DP  RH WIND       PRES   REMARKS
FERGUS FALLS   PTCLDY    19  12  73 NW9       30.01R WCI   9
WHEATON        PTCLDY    23  14  68 N5        30.06S WCI  17
MORRIS         PTCLDY    19  12  73 N5        30.05R WCI  13
ELBOW LAKE     FAIR      19  12  76 W6        30.04S WCI  11
WADENA         CLEAR     16   9  73 W7        30.00R WCI   6
GLENWOOD       PTCLDY    18  12  79 NW9       30.02S WCI   6
APPLETON       PTCLDY    25  16  68 N3        30.05R
BENSON         PTCLDY    18  12  79 N3        30.06R
ORTONVILLE     PTCLDY    25  16  68 NE5       30.04S WCI  19
MADISON        PTCLDY    23  16  74 CALM      30.08R
WILLMAR        FAIR      18  10  73 NW6       30.07R WCI   9
$$
MNZ033>034-036-042>043-049>051-058-059-010200-
   Central Minnesota

CITY           SKY/WX    TMP DP  RH WIND       PRES   REMARKS
ST CLOUD       CLEAR     19   8  62 W10       30.01R WCI   7
SAUK CENTRE      N/A     18  11  74 W8        30.02S WCI   8
PAYNESVILLE    CLEAR     18  14  86 NW6       30.03R WCI   9
AITKIN         PTCLDY    19   7  58 NW7       29.97R WCI  10
PINE RIVER     PTCLDY    19   9  63 NW6       30.01R WCI  11
BRAINERD       MOCLDY    20   6  55 W9        29.99R WCI   9
STAPLES        MOCLDY    19  10  68 W7        30.00R WCI  10
LONG PRAIRIE   FAIR      19  10  68 NW7       30.01R WCI  10
LITTLE FALLS   CLEAR     19   5  53 W7        30.02R WCI  10
CAMP RIPLEY    MOCLDY    18   7  63 NW14      30.01R WCI   4
LITCHFIELD     CLEAR     18  14  86 W8        30.03R WCI   7
BUFFALO        CLEAR     19  11  72 MISG      30.04R
HUTCHINSON     PTCLDY    19  15  82 W7        30.05R WCI  10
$$
MNZ037-044-045-052-053-010200-
   East Central Minnesota

CITY           SKY/WX    TMP DP  RH WIND       PRES   REMARKS
PRINCETON      CLEAR     19   9  63 W9        30.00R WCI   9
MORA           CLEAR     21   9  58 W8        29.99R WCI  12
CAMBRIDGE      CLEAR     23   9  54 W13       30.00R WCI  11
RUSH CITY      CLEAR     21  10  61 W8        29.98R WCI  11
MOOSE LAKE     CLEAR     21   5  49 NW8G17    29.93R WCI  12
HINCKLEY       CLEAR     23   9  54 CALM      29.96R
CLOQUET        CLEAR     18   3  53 NW10G17   29.90R WCI   6
MCGREGOR       CLEAR     19   7  58 NW10G21   29.96R WCI   8
$$
MNZ071>073-080-081-089-090-097-098-010200-
   Southwest Minnesota

CITY           SKY/WX    TMP DP  RH WIND       PRES   REMARKS
MONTEVIDEO     CLEAR     23  12  63 CALM      30.06R
GRANITE FALLS  CLEAR     13  11  90 SW8       30.08R WCI   2
CANBY          CLEAR     20  13  76 CALM      30.06S
MARSHALL       CLEAR     16  10  77 W7        30.07R WCI   6
REDWOOD FALLS  CLEAR     19  12  74 W6        30.06R WCI  11
OLIVIA         CLEAR     12  10  92 NW7       30.06R WCI   2
PIPESTONE        N/A     16  12  86 W5        30.06R WCI   9
WINDOM         CLEAR     19  14  79 W8        30.05R WCI   9
WORTHINGTON    CLEAR     19  15  84 W13       30.07S WCI   6
JACKSON        CLEAR     23  18  80 W9        30.07S WCI  13
TRACY          CLEAR     20  12  71 W7        30.05R WCI  11
SLAYTON        CLEAR     19  13  76 W9        30.05S WCI   8
$$
MNZ065>067-074>077-082>085-091>093-010200-
   South Central Minnesota

CITY           SKY/WX    TMP DP  RH WIND       PRES   REMARKS
MANKATO        CLEAR     20  16  84 W14       30.06R WCI   7
NEW ULM        CLEAR     19  14  79 W9        30.06R WCI   9
ST JAMES       CLEAR     21  18  86 W10       30.06S WCI  10
FAIRMONT       CLEAR     22  16  78 NW14      30.08R WCI   9
GLENCOE        CLEAR     20  14  76 W10       30.04R WCI   9
FARIBAULT      CLEAR     19  16  86 W9G17     30.03R WCI   9
OWATONNA       CLEAR     19  16  86 W16       30.03R WCI   5
WASECA         CLEAR     21  16  79 W13       30.07R WCI   9
ALBERT LEA     CLEAR     21  18  86 W9        30.04R WCI  11
$$
MNZ078>079-086>088-094>096-010200-
   Southeast Minnesota

CITY           SKY/WX    TMP DP  RH WIND       PRES   REMARKS
ROCHESTER      CLEAR     21  15  78 W18       29.98R WCI   6
RED WING       CLEAR     27  16  63 W14G21    29.98R WCI  15
STANTON        CLEAR     22  15  74 W12       30.00R WCI  10
DODGE CENTER   CLEAR     19  16  86 W17       30.01R WCI   4
WINONA         CLEAR     30  25  80 W10       29.97R WCI  21
PRESTON        CLEAR     22  18  83 W12       29.99R WCI  11
$$
ABBREVIATIONS USED IN REMARKS
   TC - TEMPERATURES IN CELSIUS
  WCI - WIND CHILL INDEX
   HX - HEAT INDEX
  VSB - VISIBILITY
$$




USA.gov is the U.S. government's official web portal to all federal, state and local government web resources and services.